Stündliche Wetter Aahalden

Heute, 8 März, Montag

Zeit Temperatur Niederschläge Wind Luftdruck Luftfeuchtigkeit
00:00 +4°C° 0.1 mm 1 m/S 711 mmHg 92%
01:00 +3°C° 0 mm 0 m/S 711 mmHg 93%
02:00 +3°C° 0 mm 0 m/S 710 mmHg 94%
03:00 +3°C° 0 mm 0 m/S 710 mmHg 94%
04:00 +3°C° 0 mm 0 m/S 710 mmHg 94%
05:00 +2°C° 0.1 mm 0 m/S 710 mmHg 94%
06:00 +2°C° 0.1 mm 0 m/S 710 mmHg 94%
07:00 +2°C° 0.1 mm 0 m/S 710 mmHg 94%
08:00 +4°C° 0.2 mm 1 m/S 710 mmHg 93%
09:00 +4°C° 0.2 mm 1 m/S 710 mmHg 92%
10:00 +5°C° 0.2 mm 1 m/S 710 mmHg 91%
11:00 +5°C° 0 mm 1 m/S 710 mmHg 88%
12:00 +6°C° 0 mm 1 m/S 710 mmHg 86%
13:00 +6°C° 0 mm 1 m/S 709 mmHg 83%
14:00 +6°C° 0 mm 1 m/S 709 mmHg 81%
15:00 +7°C° 0 mm 1 m/S 709 mmHg 79%
16:00 +7°C° 0 mm 1 m/S 709 mmHg 76%
17:00 +6°C° 0 mm 1 m/S 709 mmHg 79%
18:00 +5°C° 0 mm 1 m/S 709 mmHg 82%
19:00 +4°C° 0 mm 1 m/S 709 mmHg 85%
20:00 +4°C° 0 mm 1 m/S 709 mmHg 85%
21:00 +3°C° 0 mm 1 m/S 710 mmHg 86%
22:00 +3°C° 0 mm 1 m/S 710 mmHg 86%
23:00 +2°C° 0 mm 1 m/S 710 mmHg 86%

Morgen, 9 März, Dienstag

Zeit Temperatur Niederschläge Wind Luftdruck Luftfeuchtigkeit
00:00 +1°C° 0 mm 1 m/S 709 mmHg 86%
01:00 0°C° 0 mm 1 m/S 709 mmHg 87%
02:00 0°C° 0 mm 1 m/S 709 mmHg 86%
03:00 0°C° 0 mm 1 m/S 709 mmHg 86%
04:00 -2°C° 0 mm 0 m/S 709 mmHg 86%
05:00 -2°C° 0 mm 0 m/S 709 mmHg 85%
06:00 -2°C° 0 mm 0 m/S 709 mmHg 85%
07:00 -2°C° 0 mm 0 m/S 709 mmHg 85%
08:00 0°C° 0 mm 0 m/S 709 mmHg 80%
09:00 +2°C° 0 mm 0 m/S 709 mmHg 76%
10:00 +3°C° 0 mm 0 m/S 709 mmHg 72%
11:00 +5°C° 0 mm 1 m/S 709 mmHg 69%
12:00 +6°C° 0 mm 1 m/S 709 mmHg 66%
13:00 +7°C° 0 mm 1 m/S 709 mmHg 63%
14:00 +7°C° 0 mm 1 m/S 709 mmHg 61%
15:00 +7°C° 0 mm 1 m/S 709 mmHg 60%
16:00 +7°C° 0 mm 1 m/S 709 mmHg 58%
17:00 +5°C° 0 mm 1 m/S 709 mmHg 64%
18:00 +3°C° 0 mm 0 m/S 709 mmHg 69%
19:00 +1°C° 0 mm 0 m/S 709 mmHg 75%
20:00 +1°C° 0 mm 0 m/S 710 mmHg 76%
21:00 +1°C° 0 mm 1 m/S 711 mmHg 78%
22:00 +1°C° 0 mm 1 m/S 711 mmHg 80%
23:00 0°C° 0 mm 1 m/S 711 mmHg 81%

übermorgen, 10 März, Mittwoch

Zeit Temperatur Niederschläge Wind Luftdruck Luftfeuchtigkeit
00:00 0°C° 0 mm 1 m/S 711 mmHg 82%
01:00 -1°C° 0 mm 1 m/S 711 mmHg 82%
02:00 -1°C° 0 mm 1 m/S 711 mmHg 82%
03:00 -1°C° 0 mm 1 m/S 711 mmHg 82%
04:00 -1°C° 0 mm 1 m/S 711 mmHg 82%
05:00 -1°C° 0 mm 1 m/S 711 mmHg 81%
06:00 -1°C° 0 mm 1 m/S 712 mmHg 80%
07:00 -1°C° 0 mm 1 m/S 712 mmHg 79%
08:00 0°C° 0 mm 0 m/S 712 mmHg 72%
09:00 +3°C° 0 mm 0 m/S 712 mmHg 65%
10:00 +5°C° 0 mm 0 m/S 713 mmHg 57%
11:00 +7°C° 0 mm 0 m/S 713 mmHg 55%
12:00 +8°C° 0 mm 0 m/S 713 mmHg 54%
13:00 +9°C° 0 mm 0 m/S 712 mmHg 52%
14:00 +9°C° 0 mm 0 m/S 712 mmHg 52%
15:00 +9°C° 0 mm 0 m/S 712 mmHg 52%
16:00 +9°C° 0 mm 0 m/S 711 mmHg 52%
17:00 +7°C° 0 mm 0 m/S 711 mmHg 58%
18:00 +5°C° 0 mm 1 m/S 711 mmHg 63%
19:00 +3°C° 0 mm 1 m/S 711 mmHg 68%
20:00 +3°C° 0 mm 1 m/S 711 mmHg 67%
21:00 +3°C° 0 mm 1 m/S 711 mmHg 66%
22:00 +2°C° 0 mm 2 m/S 711 mmHg 65%
23:00 +2°C° 0 mm 2 m/S 711 mmHg 63%

11 März, Donnerstag

Zeit Temperatur Niederschläge Wind Luftdruck Luftfeuchtigkeit
00:00 +2°C° 0 mm 2 m/S 711 mmHg 60%
01:00 +2°C° 0 mm 2 m/S 711 mmHg 58%
02:00 +3°C° 0 mm 2 m/S 711 mmHg 57%
03:00 +3°C° 0 mm 2 m/S 710 mmHg 55%
04:00 +4°C° 0 mm 2 m/S 710 mmHg 54%
05:00 +4°C° 0 mm 2 m/S 710 mmHg 54%
06:00 +4°C° 0 mm 2 m/S 710 mmHg 55%
07:00 +6°C° 0 mm 1 m/S 710 mmHg 55%
08:00 +6°C° 0 mm 2 m/S 710 mmHg 59%
09:00 +7°C° 0 mm 2 m/S 710 mmHg 62%
10:00 +7°C° 0 mm 2 m/S 709 mmHg 66%
11:00 +9°C° 0 mm 2 m/S 709 mmHg 65%
12:00 +11°C° 0 mm 3 m/S 709 mmHg 64%
13:00 +12°C° 0 mm 4 m/S 709 mmHg 63%
14:00 +12°C° 0 mm 4 m/S 708 mmHg 65%
15:00 +12°C° 0 mm 4 m/S 708 mmHg 68%
16:00 +12°C° 0 mm 4 m/S 707 mmHg 70%
17:00 +11°C° 0.1 mm 4 m/S 708 mmHg 74%
18:00 +10°C° 0.1 mm 4 m/S 708 mmHg 77%
19:00 +8°C° 0.1 mm 4 m/S 708 mmHg 81%
20:00 +7°C° 1.1 mm 4 m/S 708 mmHg 85%
21:00 +7°C° 1.1 mm 4 m/S 708 mmHg 88%
22:00 +7°C° 1.1 mm 4 m/S 709 mmHg 92%
23:00 +7°C° 2.5 mm 3 m/S 709 mmHg 92%

12 März, Freitag

Zeit Temperatur Niederschläge Wind Luftdruck Luftfeuchtigkeit
00:00 +5°C° 2.5 mm 3 m/S 709 mmHg 93%
01:00 +4°C° 2.5 mm 3 m/S 710 mmHg 93%
02:00 +4°C° 0.7 mm 3 m/S 710 mmHg 93%
03:00 +5°C° 0.7 mm 2 m/S 709 mmHg 93%
04:00 +6°C° 0.7 mm 1 m/S 709 mmHg 94%
05:00 +6°C° 0.2 mm 1 m/S 709 mmHg 94%
06:00 +5°C° 0.2 mm 1 m/S 709 mmHg 93%
07:00 +5°C° 0.2 mm 1 m/S 709 mmHg 93%
08:00 +5°C° 0.5 mm 2 m/S 709 mmHg 92%
09:00 +5°C° 0.5 mm 2 m/S 709 mmHg 91%
10:00 +4°C° 0.5 mm 3 m/S 709 mmHg 90%
11:00 +4°C° 0.4 mm 3 m/S 709 mmHg 88%
12:00 +6°C° 0.4 mm 2 m/S 709 mmHg 85%
13:00 +6°C° 0.4 mm 2 m/S 708 mmHg 83%
14:00 +6°C° 0.2 mm 2 m/S 708 mmHg 81%
15:00 +7°C° 0.2 mm 2 m/S 708 mmHg 80%
16:00 +7°C° 0.2 mm 2 m/S 707 mmHg 78%
17:00 +6°C° 0.2 mm 2 m/S 707 mmHg 81%
18:00 +5°C° 0.2 mm 2 m/S 707 mmHg 84%
19:00 +4°C° 0.2 mm 2 m/S 707 mmHg 86%
20:00 +3°C° 0 mm 2 m/S 708 mmHg 85%
21:00 +3°C° 0 mm 2 m/S 708 mmHg 84%
22:00 +3°C° 0 mm 2 m/S 708 mmHg 83%
23:00 +3°C° 0.1 mm 2 m/S 708 mmHg 84%

13 März, Samstag

Zeit Temperatur Niederschläge Wind Luftdruck Luftfeuchtigkeit
00:00 +2°C° 0.1 mm 2 m/S 708 mmHg 85%
01:00 +2°C° 0.1 mm 2 m/S 707 mmHg 86%
02:00 +2°C° 0.7 mm 2 m/S 707 mmHg 88%
03:00 +1°C° 0.7 mm 3 m/S 707 mmHg 90%
04:00 +1°C° 0.7 mm 3 m/S 707 mmHg 92%
05:00 +1°C° 0.4 mm 3 m/S 707 mmHg 93%
06:00 +1°C° 0.4 mm 3 m/S 708 mmHg 93%
07:00 +1°C° 0.4 mm 3 m/S 708 mmHg 94%
08:00 +2°C° 1 mm 3 m/S 708 mmHg 94%
09:00 +3°C° 1 mm 2 m/S 708 mmHg 95%
10:00 +3°C° 1 mm 2 m/S 709 mmHg 95%
11:00 +3°C° 0.4 mm 3 m/S 709 mmHg 93%
12:00 +4°C° 0.4 mm 3 m/S 709 mmHg 90%
13:00 +4°C° 0.4 mm 4 m/S 709 mmHg 88%
14:00 +5°C° 0.2 mm 4 m/S 709 mmHg 86%
15:00 +5°C° 0.2 mm 4 m/S 709 mmHg 84%
16:00 +5°C° 0.2 mm 4 m/S 709 mmHg 82%
17:00 +5°C° 0.3 mm 4 m/S 709 mmHg 86%
18:00 +4°C° 0.3 mm 3 m/S 709 mmHg 89%
19:00 +3°C° 0.3 mm 3 m/S 710 mmHg 92%
20:00 +3°C° 0.5 mm 3 m/S 710 mmHg 93%
21:00 +3°C° 0.5 mm 3 m/S 710 mmHg 93%
22:00 +3°C° 0.5 mm 3 m/S 711 mmHg 93%
23:00 +3°C° 0.2 mm 3 m/S 711 mmHg 92%
Mehr zeigen

Wir brauchen deine Erlaubnis

Meteoprog und unser Service Anbieter werden persönliche Daten aufbewahren, so wie Cookies, Geräte Bezeichnung oder ähnliche Technologien von deinem Gerät und Prozess, so wie Persönliche Daten Inhalte und Werbungen, genauso wie social Media und den Verkehr zu analysieren.

  • Aufbewahrung und/oder Zugang zu deiner Geräte Informationen.

    Cookies, Geräte Bezeichnung oder andere Informationen, können aufbewahrt oder Zugang zu deinem Gerät erhalten, für den Grund, der oben angegeben wird.

  • Personalisierte Werbung und Inhalte, Messungen, Einblick in das Publikum und Produkt Entwicklung.

    Werbungen und Inhalte können personalisiert werden, basierend auf ein Profil. Mehr Daten können besser personalisierte Werbungen und Inhalte hinzufügen. Werbung und Inhalte können gezeigt und gemessen werden. Einblicke über das Publikum, welche die Werbung gesehen haben und den Inhalt, können abgeleitet werden. So wie Daten können genutzt werden, um es zu verbessern oder die Benutzer Erfahrung zu verbessern das System und die Software.

Wenn du “Ich stimme zu” klickst, erlaubst du uns, die Cookies zu benutzen die Geräte Bezeichnung, den Web oder ähnliche Technologien zu benutzen. Deine Settings, können in deinem Gerät bei deinem Browser geändert werden.

Für den bestimmten Zweck, berechtigten Interessen beruhen darauf, mehr als auf den Inhalt. Du kannst mehr darüber in unseren Privaten und Cookie Politik lesen.